DateTimeUTC,F1_A11,F1_S11,BsB_S11,BsG_S11,BsR_S11,BbsB_S11,BbsG_S11,BbsR_S11,BaB_A11,BaG_A11,BaR_A11,Tu_S11,T_S11,Uu_S11,U_S11,P_S11,T1_A11
2021-11-06T03:00:00Z,00000200,21000000,,,,,,,-000.19,0000.11,-000.02,18.6,25.6,,00.0,0649.1,31.0
2021-11-06T03:01:00Z,00000200,21000000,,,,,,,0000.04,-000.05,0000.14,18.7,25.6,,00.0,0649.1,31.0
2021-11-06T03:02:00Z,00000200,21000000,,,,,,,-000.35,-000.05,-000.23,18.7,25.7,,00.0,0649.1,31.1
2021-11-06T03:03:00Z,00000200,61000000,,,,,,,0000.72,0000.39,-000.11,18.7,25.7,,00.0,0649.1,31.0
2021-11-06T03:04:00Z,00000200,41000000,0000.66,0000.28,0000.21,-000.10,-000.13,-000.06,0000.01,0000.08,0000.50,19.0,25.5,,00.0,0649.9,31.0
2021-11-06T03:05:00Z,00000200,01000000,0000.26,0000.03,0000.22,-000.24,-000.21,0000.00,0000.23,0000.28,0000.11,19.0,25.5,,00.0,0650.0,31.0
2021-11-06T03:06:00Z,00000200,01000000,-000.18,0000.27,0000.31,-000.90,0000.05,0000.16,0000.20,0000.39,0000.40,19.1,25.5,,00.0,0650.0,31.0
2021-11-06T03:07:00Z,00000200,01000000,-000.04,-000.18,0000.41,-000.13,0000.12,0000.25,0000.24,-000.27,-000.19,19.1,25.5,,00.0,0650.0,31.1
2021-11-06T03:08:00Z,00000200,01000000,-000.16,0000.12,0000.04,-000.16,0000.00,-000.10,0000.06,0000.16,0000.15,19.1,25.5,,00.0,0650.0,31.0
2021-11-06T03:09:00Z,00000200,01000000,0000.83,0000.27,0000.31,-000.32,0000.16,0000.07,0000.11,0000.04,0000.18,19.2,25.5,,00.0,0650.0,31.1
2021-11-06T03:10:00Z,00000200,01000000,0000.47,0000.11,0000.02,0000.19,0000.12,-000.10,0000.06,0000.09,-000.26,19.2,25.6,,00.0,0650.0,31.1
2021-11-06T03:11:00Z,00000200,01000000,-000.22,-000.13,0000.15,-000.80,0000.15,0000.14,0000.11,0000.17,0000.18,19.2,25.6,,00.0,0650.0,31.1
2021-11-06T03:12:00Z,00000200,01000000,0000.13,0000.39,0000.16,0000.04,-000.00,-000.05,-000.20,-000.08,0000.07,19.2,25.6,,00.0,0650.0,31.1
2021-11-06T03:13:00Z,00000200,01000000,0001.15,0000.42,-000.07,-001.07,-000.18,-000.23,0000.56,0000.17,-000.03,19.3,25.6,,00.0,0650.0,31.0
2021-11-06T03:14:00Z,00000200,01000000,0000.44,0000.09,0000.27,0000.05,-000.07,0000.18,-000.09,0000.14,0000.54,19.3,25.6,,00.0,0650.0,31.0
2021-11-06T03:15:00Z,00000200,01000000,0000.57,-000.05,0000.35,-000.13,0000.32,0000.14,-000.08,0000.25,0000.12,19.3,25.6,,00.0,0650.0,31.1
2021-11-06T03:16:00Z,00000200,01000000,-000.13,0000.15,0000.38,0000.00,-000.32,0000.03,0000.69,0000.20,-000.06,19.3,25.6,,00.0,0650.0,31.1
2021-11-06T03:17:00Z,00000200,01000000,0000.42,0000.31,-000.10,-000.03,0000.05,-000.06,0000.07,0000.55,0000.35,19.3,25.6,,00.0,0650.0,31.1
2021-11-06T03:18:00Z,00000200,01000000,0000.32,0000.08,0000.23,-000.66,0000.05,0000.08,0000.17,-000.15,0000.01,19.4,25.7,,00.0,0650.0,31.1
2021-11-06T03:19:00Z,00000200,01000000,0000.40,0000.19,0000.10,0000.43,0000.09,0000.16,0000.14,0000.23,0000.08,19.4,25.7,,00.0,0650.1,31.1
2021-11-06T03:20:00Z,00000200,01000000,0000.31,-000.22,0000.09,-000.04,0000.11,0000.10,0000.28,0000.33,-000.19,19.4,25.7,,00.0,0650.1,31.1
2021-11-06T03:21:00Z,00000200,01000000,-000.26,-000.13,0000.15,0000.47,0000.08,0000.02,0000.14,-000.14,0000.53,19.4,25.7,,00.0,0650.1,31.1
2021-11-06T03:22:00Z,00000200,01000000,-000.38,0000.12,0000.40,-000.03,0000.02,0000.16,0000.07,0000.00,-000.11,19.5,25.7,,00.0,0650.1,31.1
2021-11-06T03:23:00Z,00000200,01000000,-000.31,0000.27,-000.02,-000.02,-000.32,0000.23,-000.10,-000.28,-000.16,19.5,25.7,,00.0,0650.1,31.1
2021-11-06T03:24:00Z,00000200,01000000,0000.19,-000.27,0000.12,-000.31,-000.06,0000.05,0000.20,0000.14,0000.34,19.5,25.7,,00.0,0650.1,31.1
2021-11-06T03:25:00Z,00000200,01000000,0000.34,-000.03,0000.22,-000.50,-000.08,0000.05,-000.28,0000.33,0000.04,19.5,25.8,,00.0,0650.1,31.1
2021-11-06T03:26:00Z,00000200,01000000,0000.62,-000.07,0000.37,0000.23,-000.10,0000.10,0000.33,-000.29,-000.22,19.6,25.8,,00.0,0650.1,31.1
2021-11-06T03:27:00Z,00000200,01000000,-000.57,0000.16,0000.38,-000.06,-000.15,0000.07,0000.15,0000.34,0000.02,19.6,25.8,,00.0,0650.1,31.1
2021-11-06T03:28:00Z,00000200,01000000,0000.54,0000.03,0000.05,-000.01,0000.27,0000.06,0000.40,0000.31,0000.26,19.6,25.8,,00.0,0650.0,31.1
2021-11-06T03:29:00Z,00000200,01000000,0000.56,0000.09,0000.18,0000.60,0000.17,-000.32,-000.04,0000.21,0000.24,19.6,25.8,,00.0,0650.0,31.1
2021-11-06T03:30:00Z,00000200,01000000,0000.51,0000.14,-000.02,0000.32,-000.13,0000.09,0000.04,0000.06,0000.31,19.6,25.8,,00.0,0650.0,31.1
2021-11-06T03:31:00Z,00000200,01000000,0001.07,0000.17,-000.07,-000.30,0000.29,0000.18,0000.31,0000.32,-000.14,19.6,25.8,,00.0,0650.0,31.1
2021-11-06T03:32:00Z,00000200,01000000,0000.86,-000.19,0000.19,0000.20,-000.15,-000.09,0000.24,0000.10,0000.15,19.5,25.8,,00.0,0650.0,31.1
2021-11-06T03:33:00Z,00000200,01000000,0000.15,-000.33,0000.14,-000.50,-000.02,0000.18,0000.52,0000.46,0000.18,19.4,25.8,,00.0,0649.9,31.1
2021-11-06T03:34:00Z,00000200,01000000,0000.36,0000.03,0000.34,-000.63,-000.04,0000.44,0000.24,0000.37,0000.55,19.4,25.7,,00.0,0649.9,31.0
2021-11-06T03:35:00Z,00000200,01000000,0000.81,0000.26,-000.53,-000.56,0000.12,-000.07,0000.46,0000.49,0000.10,19.4,25.7,,00.0,0649.9,31.0
2021-11-06T03:36:00Z,00000200,01000000,0000.06,-000.01,0000.36,-000.16,0000.23,-000.15,0000.51,0000.18,0000.30,19.4,25.8,,00.0,0649.9,31.0
2021-11-06T03:37:00Z,00000200,01000000,0000.45,0000.00,-000.01,-000.38,-000.26,0000.16,0000.22,0000.24,0000.22,19.5,25.8,,00.0,0649.9,31.1
2021-11-06T03:38:00Z,00000200,01000000,0000.55,0000.15,-000.00,-000.21,0000.12,-000.07,0000.38,-000.06,0000.19,19.5,25.8,,00.0,0649.9,31.1
2021-11-06T03:39:00Z,00000200,01000000,0000.02,0000.13,-000.09,-000.24,-000.26,-000.42,0000.18,0000.46,0000.26,19.5,25.8,,00.0,0649.9,31.1
2021-11-06T03:40:00Z,00000200,01000000,0000.55,0000.04,0000.35,-000.67,0000.18,0000.32,-000.17,0000.06,-000.25,19.5,25.8,,00.0,0649.9,31.1
2021-11-06T03:41:00Z,00000200,01000000,0000.65,0000.14,0000.14,-000.15,0000.16,0000.30,0000.20,0000.27,0000.12,19.5,25.8,,00.0,0649.9,31.1
2021-11-06T03:42:00Z,00000200,01000000,0000.21,-000.02,0000.18,0000.39,-000.06,0000.13,0000.13,-000.07,0000.04,19.4,25.8,,00.0,0649.9,31.0
2021-11-06T03:43:00Z,00000200,01000000,0000.22,0000.16,0000.40,0000.36,0000.32,0000.43,0000.54,0000.30,0000.19,19.3,25.7,,00.0,0649.8,31.0
2021-11-06T03:44:00Z,00000200,01000000,0001.07,0000.21,-000.04,-000.27,-000.08,-000.09,-000.55,-000.33,-000.16,19.1,25.7,,00.0,0649.8,31.0
2021-11-06T03:45:00Z,00000200,01000000,0000.61,-000.03,-000.14,-000.09,0000.13,0000.06,0000.13,0000.15,0000.00,19.0,25.6,,00.0,0649.8,31.0
2021-11-06T03:46:00Z,00000200,01000000,0000.26,0000.24,0000.21,-000.08,0000.05,0000.12,0000.12,0000.09,0000.01,18.9,25.5,,00.0,0649.8,30.9
2021-11-06T03:47:00Z,00000200,01000000,-000.11,-000.12,0000.25,-000.70,-000.04,0000.25,0000.16,0000.01,0000.33,18.8,25.5,,00.0,0649.8,30.9
2021-11-06T03:48:00Z,00000200,01000000,0000.12,-000.23,0000.36,-000.35,0000.00,0000.16,-000.32,-000.25,0000.07,18.7,25.4,,00.0,0649.8,30.9
2021-11-06T03:49:00Z,00000200,01000000,-000.35,0000.21,-000.17,0000.03,0000.11,-000.02,0000.24,0000.16,-000.12,18.7,25.4,,00.0,0649.8,30.9
2021-11-06T03:50:00Z,00000200,01000000,0000.45,0000.44,0000.24,0000.40,-000.27,0000.10,-000.09,0000.15,-000.13,18.7,25.4,,00.0,0649.8,30.9
2021-11-06T03:51:00Z,00000200,01000000,0000.28,-000.09,0000.31,-000.12,-000.16,0000.14,-000.08,-000.10,0000.04,18.8,25.4,,00.0,0649.8,31.0
2021-11-06T03:52:00Z,00000200,01000000,0000.19,-000.02,0000.23,-000.11,-000.19,0000.50,0000.26,0000.21,0000.22,18.8,25.4,,00.0,0649.8,31.0
2021-11-06T03:53:00Z,00000200,01000000,0000.15,0000.09,0000.05,-000.39,-000.14,0000.15,0000.06,0000.15,-000.25,18.8,25.4,,00.0,0649.8,31.0
2021-11-06T03:54:00Z,00000200,01000000,0000.29,0000.31,0000.20,-000.21,-000.25,0000.09,-000.39,-000.44,-000.19,18.8,25.4,,00.0,0649.8,31.0
2021-11-06T03:55:00Z,00000200,01000000,0000.93,-000.01,0000.34,0000.49,0000.46,0000.30,0000.28,0000.26,0000.51,18.9,25.4,,00.0,0649.8,31.0
2021-11-06T03:56:00Z,00000200,01000000,0000.62,-000.03,0000.35,-000.07,0000.24,0000.16,-000.09,0000.09,-000.13,18.9,25.4,,00.0,0649.8,31.0
2021-11-06T03:57:00Z,00000200,41000000,,,,,,,-000.28,-000.41,-000.49,19.0,25.5,,00.0,0649.9,31.0
2021-11-06T03:58:00Z,00000200,61000000,,,,,,,0000.45,0000.10,0000.17,18.7,25.6,,00.0,0648.9,31.0
2021-11-06T03:59:00Z,00000200,21000000,,,,,,,-000.40,0000.06,-000.11,18.7,25.7,,00.0,0648.9,31.0
